User: anonymous   Login
Location: Lecco
(45.8566°N, 9.3977°E)
Time: 05:02:44
(UTC+02:00)
Language:

Vanguard 1 - Orbit

View from above orbital plane
View from above orbital plane
View from above satellite
View from above satellite

Ground track
Ground track

The orbit data is extracted from the following two-line orbital elements,

1     5U 58002B   20219.98570737 +.00000105 +00000-0 +10988-3 0  9995
2     5 034.2563 072.6043 1846679 219.7419 125.2425 10.84863767210741
Epoch (UTC): 06 August 2020 23:39:25
Eccentricity: 0.1846679
inclination: 34.2563°
perigee height: 649 km
apogee height: 3833 km
right ascension of ascending node: 72.6043°
argument of perigee: 219.7419°
revolutions per day: 10.84863767
mean anomaly at epoch: 125.2425°
orbit number at epoch: 21074

The dashed part of the orbit path shows where the satellite is in the earth's shadow,  

DLR